| time (UTC) | temp F | wind direction | speed knots | gust knots | rain 1hr in | rain 24hr in | rain mn in | humidity % | barometer mb |
| 20260506211558 | 57 | 246 | 1.7 | 0.0 | 0.00 | 0.00 | 0.15 | 94 | 1005.6 |
| 20260506210100 | 57 | 211 | 1.7 | 0.0 | 0.00 | 0.00 | 0.15 | 94 | 1005.6 |
| 20260506204601 | 57 | 104 | 2.6 | 0.0 | 0.00 | 0.00 | 0.15 | 94 | 1005.7 |
| 20260506203049 | 57 | 268 | 1.7 | 0.0 | 0.00 | 0.00 | 0.15 | 94 | 1005.9 |
| 20260506201550 | 57 | 246 | 1.7 | 0.0 | 0.00 | 0.00 | 0.14 | 94 | 1005.9 |
| 20260506200048 | 57 | 243 | 1.7 | 0.0 | 0.00 | 0.00 | 0.12 | 94 | 1006.0 |
| 20260506194547 | 57 | 131 | 1.7 | 0.0 | 0.00 | 0.00 | 0.09 | 93 | 1006.1 |
| 20260506193045 | 57 | 138 | 2.6 | 0.0 | 0.00 | 0.00 | 0.07 | 93 | 1006.3 |
| 20260506191549 | 57 | 335 | 2.6 | 0.0 | 0.00 | 0.00 | 0.07 | 93 | 1006.3 |
| 20260506190044 | 57 | 57 | 1.7 | 0.0 | 0.00 | 0.00 | 0.06 | 93 | 1006.5 |
| 20260506184556 | 57 | 165 | 2.6 | 0.0 | 0.00 | 0.00 | 0.06 | 93 | 1006.5 |
| 20260506183041 | 57 | 259 | 2.6 | 0.0 | 0.00 | 0.00 | 0.06 | 92 | 1006.8 |
| 20260506181542 | 58 | 137 | 2.6 | 0.0 | 0.00 | 0.00 | 0.05 | 92 | 1007.0 |
| 20260506180041 | 58 | 222 | 1.7 | 0.0 | 0.00 | 0.00 | 0.04 | 91 | 1006.9 |
| 20260506174539 | 59 | 94 | 0.9 | 0.0 | 0.00 | 0.00 | 0.03 | 90 | 1006.9 |
| 20260506173044 | 60 | 147 | 0.9 | 0.0 | 0.00 | 0.00 | 0.02 | 89 | 1007.1 |
| 20260506171547 | 60 | 175 | 0.9 | 0.0 | 0.00 | 0.00 | 0.00 | 88 | 1007.7 |
| 20260506170035 | 61 | 179 | 1.7 | 0.0 | 0.00 | 0.00 | 0.00 | 86 | 1008.0 |
| 20260506164532 | 61 | 217 | 2.6 | 0.0 | 0.00 | 0.00 | 0.00 | 84 | 1008.1 |
| 20260506163035 | 62 | 227 | 3.5 | 0.0 | 0.00 | 0.00 | 0.00 | 82 | 1008.1 |
| 20260506161533 | 63 | 215 | 2.6 | 0.0 | 0.00 | 0.00 | 0.00 | 83 | 1008.2 |
| 20260506160031 | 62 | 296 | 2.6 | 0.0 | 0.00 | 0.00 | 0.00 | 82 | 1008.2 |
| 20260506154529 | 63 | 221 | 3.5 | 0.0 | 0.00 | 0.00 | 0.00 | 80 | 1008.4 |
| 20260506153027 | 64 | 247 | 1.7 | 0.0 | 0.00 | 0.00 | 0.00 | 80 | 1008.7 |
| 20260506151528 | 64 | 277 | 3.5 | 0.0 | 0.00 | 0.00 | 0.00 | 79 | 1008.4 |
| 20260506150028 | 64 | 71 | 2.6 | 0.0 | 0.00 | 0.00 | 0.00 | 79 | 1008.3 |
| 20260506144526 | 64 | 332 | 2.6 | 0.0 | 0.00 | 0.00 | 0.00 | 80 | 1008.3 |
| 20260506143024 | 64 | 151 | 3.5 | 0.0 | 0.00 | 0.00 | 0.00 | 80 | 1008.5 |
| 20260506141523 | 64 | 84 | 3.5 | 0.0 | 0.00 | 0.00 | 0.00 | 81 | 1008.5 |
| 20260506140027 | 63 | 217 | 2.6 | 0.0 | 0.00 | 0.00 | 0.00 | 82 | 1008.5 |
| 20260506134521 | 62 | 163 | 3.5 | 0.0 | 0.00 | 0.00 | 0.00 | 83 | 1008.7 |
| 20260506133026 | 62 | 244 | 3.5 | 0.0 | 0.00 | 0.00 | 0.00 | 83 | 1008.4 |
| 20260506131518 | 62 | 240 | 2.6 | 0.0 | 0.00 | 0.00 | 0.00 | 84 | 1008.6 |
| 20260506130018 | 61 | 157 | 2.6 | 0.0 | 0.00 | 0.00 | 0.00 | 85 | 1008.6 |
| 20260506124518 | 60 | 182 | 2.6 | 0.0 | 0.00 | 0.00 | 0.00 | 86 | 1008.8 |
| 20260506123011 | 60 | 165 | 2.6 | 0.0 | 0.00 | 0.00 | 0.00 | 87 | 1009.1 |
| 20260506121510 | 59 | 179 | 1.7 | 0.0 | 0.00 | 0.00 | 0.00 | 88 | 1009.1 |
| 20260506120010 | 58 | 232 | 2.6 | 0.0 | 0.00 | 0.00 | 0.00 | 89 | 1009.1 |
| 20260506114529 | 58 | 150 | 2.6 | 0.0 | 0.00 | 0.00 | 0.00 | 89 | 1008.9 |
| 20260506113009 | 57 | 236 | 1.7 | 0.0 | 0.00 | 0.00 | 0.00 | 90 | 1009.1 |
| 20260506111509 | 57 | 210 | 0.9 | 0.0 | 0.00 | 0.00 | 0.00 | 90 | 1009.0 |
| 20260506110008 | 57 | 236 | 1.7 | 0.0 | 0.00 | 0.00 | 0.00 | 90 | 1009.3 |
| 20260506104507 | 56 | 252 | 1.7 | 0.0 | 0.00 | 0.00 | 0.00 | 91 | 1009.2 |
| 20260506103006 | 56 | 230 | 1.7 | 0.0 | 0.00 | 0.00 | 0.00 | 91 | 1009.2 |
| 20260506101505 | 56 | 145 | 0.9 | 0.0 | 0.00 | 0.00 | 0.00 | 91 | 1008.9 |
| 20260506100009 | 55 | 147 | 0.9 | 0.0 | 0.00 | 0.00 | 0.00 | 91 | 1009.0 |
| 20260506094504 | 55 | 176 | 1.7 | 0.0 | 0.00 | 0.00 | 0.00 | 91 | 1008.8 |
| 20260506093003 | 55 | 175 | 0.9 | 0.0 | 0.00 | 0.00 | 0.00 | 91 | 1008.9 |
| 20260506091503 | 56 | 159 | 1.7 | 0.0 | 0.00 | 0.00 | 0.00 | 90 | 1009.0 |
| 20260506090001 | 56 | 263 | 1.7 | 0.0 | 0.00 | 0.00 | 0.00 | 90 | 1009.0 |
| 20260506084604 | 56 | 199 | 1.7 | 0.0 | 0.00 | 0.00 | 0.00 | 90 | 1009.1 |
| 20260506083058 | 56 | 180 | 1.7 | 0.0 | 0.00 | 0.00 | 0.00 | 89 | 1009.2 |
| 20260506081556 | 56 | 101 | 1.7 | 0.0 | 0.00 | 0.00 | 0.00 | 89 | 1009.2 |
| 20260506073052 | 57 | 184 | 1.7 | 0.0 | 0.00 | 0.00 | 0.00 | 87 | 1009.2 |
| 20260506071557 | 57 | 54 | 1.7 | 0.0 | 0.00 | 0.00 | 0.00 | 87 | 1009.3 |
| 20260506061543 | 59 | 222 | 1.7 | 0.0 | 0.00 | 0.00 | 0.00 | 84 | 1009.2 |
| 20260506044539 | 60 | 200 | 2.6 | 0.0 | 0.00 | 0.00 | 0.00 | 78 | 1009.8 |
| 20260506043030 | 61 | 215 | 2.6 | 0.0 | 0.00 | 0.00 | 0.00 | 77 | 1009.8 |
| 20260506041528 | 61 | 245 | 2.6 | 0.0 | 0.00 | 0.00 | 0.00 | 76 | 1009.8 |
| 20260506040026 | 61 | 157 | 3.5 | 0.0 | 0.00 | 0.00 | 0.00 | 76 | 1009.8 |
| 20260506034526 | 61 | 219 | 2.6 | 0.0 | 0.00 | 0.00 | 0.00 | 76 | 1009.8 |
| 20260506033033 | 61 | 182 | 3.5 | 0.0 | 0.00 | 0.00 | 0.00 | 75 | 1009.8 |
| 20260506031532 | 62 | 231 | 2.6 | 0.0 | 0.00 | 0.00 | 0.00 | 74 | 1009.7 |
| 20260506030046 | 62 | 198 | 2.6 | 0.0 | 0.00 | 0.00 | 0.00 | 74 | 1009.7 |
| 20260506024529 | 62 | 188 | 2.6 | 0.0 | 0.00 | 0.00 | 0.00 | 74 | 1009.6 |
| 20260506023024 | 62 | 236 | 2.6 | 0.0 | 0.00 | 0.00 | 0.00 | 74 | 1009.6 |
| 20260506021523 | 62 | 138 | 2.6 | 0.0 | 0.00 | 0.00 | 0.00 | 73 | 1009.7 |
| 20260506020023 | 62 | 101 | 2.6 | 0.0 | 0.00 | 0.00 | 0.00 | 72 | 1009.6 |
| 20260506014523 | 62 | 312 | 2.6 | 0.0 | 0.00 | 0.00 | 0.00 | 71 | 1009.4 |
| 20260506013022 | 63 | 232 | 2.6 | 0.0 | 0.00 | 0.00 | 0.00 | 70 | 1009.3 |
| 20260506011530 | 63 | 263 | 3.5 | 0.0 | 0.00 | 0.00 | 0.00 | 69 | 1009.1 |
| 20260506010021 | 64 | 225 | 3.5 | 0.0 | 0.00 | 0.00 | 0.00 | 68 | 1008.9 |
| 20260506004540 | 64 | 219 | 3.5 | 0.0 | 0.00 | 0.00 | 0.00 | 67 | 1008.8 |
| 20260506003024 | 64 | 209 | 2.6 | 0.0 | 0.00 | 0.00 | 0.00 | 67 | 1008.6 |
| 20260506001522 | 64 | 330 | 2.6 | 0.0 | 0.00 | 0.00 | 0.00 | 67 | 1008.2 |
| 20260506000024 | 65 | 254 | 3.5 | 0.0 | 0.00 | 0.00 | 0.00 | 66 | 1008.1 |
| 20260505234519 | 66 | 197 | 3.5 | 0.0 | 0.00 | 0.00 | 0.00 | 66 | 1008.0 |
| 20260505233018 | 66 | 254 | 3.5 | 0.0 | 0.00 | 0.00 | 0.00 | 65 | 1007.8 |
| 20260505231525 | 67 | 235 | 3.5 | 0.0 | 0.00 | 0.00 | 0.00 | 64 | 1007.6 |
| 20260505230024 | 67 | 132 | 5.2 | 0.0 | 0.00 | 0.00 | 0.00 | 63 | 1007.5 |
| 20260505224517 | 68 | 240 | 5.2 | 0.0 | 0.00 | 0.00 | 0.00 | 62 | 1007.3 |
| 20260505223015 | 70 | 184 | 4.3 | 0.0 | 0.00 | 0.00 | 0.00 | 60 | 1007.0 |
| 20260505221518 | 71 | 175 | 4.3 | 0.0 | 0.00 | 0.00 | 0.00 | 58 | 1007.4 |
| 20260505220014 | 72 | 168 | 3.5 | 0.0 | 0.00 | 0.00 | 0.00 | 57 | 1007.3 |
| 20260505214514 | 73 | 101 | 1.7 | 0.0 | 0.00 | 0.00 | 0.00 | 57 | 1007.3 |
| 20260505213013 | 73 | 103 | 3.5 | 0.0 | 0.00 | 0.00 | 0.00 | 57 | 1007.2 |